Location: Proctor
(47.8934°N, 114.3048°W)
Time: 21:52:12
(UTC+00:00)

Tiros 1 despin weight - Pass Details

Date: 03 July 2024
Orbit: 576 x 620 km, 48.2° (Epoch: 19 July)

Event Time Altitude Azimuth Distance (km) Brightness Sun altitude
Rises 21:11:36 0° 284° (WNW) 2,893 ? 59.2°
Reaches altitude 10° 21:14:09 10° 273° (W) 1,987 ? 58.9°
Maximum altitude 21:18:03 28° 215° (SW) 1,162 ? 58.5°
Drops below altitude 10° 21:21:56 10° 156° (SSE) 1,977 ? 58.0°
Sets 21:24:28 0° 145° (SE) 2,876 ? 57.7°
